EW6230 Weather Reports


Display with metric or nautical units.
time (UTC)temp
F
wind
direction
speed
MPH
gust
MPH
rain 1hr
in
rain 24hr
in
rain mn
in
humidity
%
barometer
mb
20220525151504 52 325 0.0 0.0 0.00 0.00 0.00 1 1011.5
20220525150059 51 325 0.0 0.0 0.00 0.00 0.00 1 1011.3
20220525144555 50 325 0.0 0.0 0.00 0.00 0.00 1 1011.2
20220525143051 50 325 0.0 0.0 0.00 0.00 0.00 1 1011.4
20220525141554 49 325 0.0 0.0 0.00 0.00 0.00 1 1011.4
20220525140100 48 325 0.0 0.0 0.00 0.00 0.00 1 1011.2
20220525134537 47 324 0.0 0.0 0.00 0.00 0.00 1 1011.1
20220525133039 47 324 0.0 0.0 0.00 0.00 0.00 1 1010.9
20220525131528 47 325 0.0 0.0 0.00 0.00 0.00 1 1011.0
20220525130031 47 324 0.0 0.0 0.00 0.00 0.00 1 1010.8
20220525124519 47 324 0.0 0.0 0.00 0.00 0.00 1 1011.1
20220525123021 47 324 0.0 0.0 0.00 0.00 0.00 1 1011.1
20220525121510 48 324 0.0 0.0 0.00 0.00 0.00 1 1010.9
20220525120011 48 325 0.0 0.0 0.00 0.00 0.00 1 1010.8
20220525114506 48 325 0.0 0.0 0.00 0.00 0.00 1 1010.6
20220525113058 48 325 0.0 0.0 0.00 0.00 0.00 1 1010.5
20220525111559 48 325 0.0 0.0 0.00 0.00 0.00 1 1010.5
20220525110049 48 324 0.0 0.0 0.00 0.00 0.00 1 1010.6
20220525104544 48 325 0.0 0.0 0.00 0.00 0.00 1 1010.5
20220525103040 48 324 0.0 0.0 0.00 0.00 0.00 1 1010.6
20220525101542 48 324 0.0 0.0 0.00 0.00 0.00 1 1010.5
20220525100030 48 325 0.0 0.0 0.00 0.00 0.00 1 1010.6
20220525094529 48 324 0.0 0.0 0.00 0.00 0.00 1 1011.0
20220525093021 49 325 0.0 0.0 0.00 0.00 0.00 1 1011.1
20220525091516 49 324 0.0 0.0 0.00 0.00 0.00 1 1011.0
20220525090017 49 325 0.0 0.0 0.00 0.00 0.00 1 1010.8
20220525084522 49 325 0.0 0.0 0.00 0.00 0.00 1 1011.0
20220525083007 49 324 0.0 0.0 0.00 0.00 0.00 1 1011.4
20220525081601 49 324 0.0 0.0 0.00 0.00 0.00 1 1011.3
20220525080055 49 324 0.0 0.0 0.00 0.00 0.00 1 1011.2
20220525074552 49 325 0.0 0.0 0.00 0.00 0.00 1 1011.6
20220525073049 49 325 0.0 0.0 0.00 0.00 0.00 1 1011.4
20220525071540 49 324 0.0 0.0 0.00 0.00 0.00 1 1011.5
20220525070042 49 325 0.0 0.0 0.00 0.00 0.00 1 1011.5
20220525064532 49 325 0.0 0.0 0.00 0.00 0.00 1 1011.1
20220525063028 49 325 0.0 0.0 0.00 0.00 0.00 1 1011.3
20220525061523 49 325 0.0 0.0 0.00 0.00 0.00 1 1011.2
20220525060026 49 325 0.0 0.0 0.00 0.00 0.00 1 1011.2
20220525054514 50 6 0.0 0.0 0.00 0.00 0.00 1 1011.4
20220525053010 50 6 0.0 0.0 0.00 0.00 0.00 1 1011.5
20220525051505 50 6 0.0 0.0 0.00 0.00 0.00 1 1011.3
20220525050002 50 13 0.0 0.0 0.00 0.00 0.00 1 1011.5
20220525044558 50 13 0.0 0.0 0.00 0.00 0.00 1 1011.5
20220525043053 50 13 0.0 0.0 0.00 0.00 0.00 1 1011.7
20220525041557 50 13 0.0 0.0 0.00 0.00 0.00 1 1011.8
20220525040059 50 238 0.0 0.0 0.00 0.00 0.00 1 1012.0
20220525034540 50 238 0.0 0.0 0.00 0.00 0.00 1 1011.9
20220525033037 51 238 0.0 0.0 0.00 0.00 0.00 1 1012.0
20220525031535 51 238 0.0 0.0 0.00 0.00 0.00 1 1012.3
20220525030030 52 238 0.0 0.0 0.00 0.00 0.00 1 1012.5
20220525024523 52 238 0.0 0.0 0.00 0.00 0.00 1 1012.9
20220525023019 52 238 0.0 0.0 0.00 0.00 0.00 1 1012.7
20220525021529 52 259 0.0 0.0 0.00 0.00 0.00 1 1012.6
20220525020022 53 259 0.0 0.0 0.00 0.00 0.00 3 1012.6
20220525014519 52 213 0.0 0.0 0.00 0.00 0.00 1 1012.6
20220525013001 52 162 0.0 0.0 0.00 0.00 0.00 14 1012.7
20220525011601 53 195 0.0 0.0 0.00 0.00 0.00 11 1013.0
20220525010053 53 207 0.0 0.0 0.00 0.00 0.00 5 1012.9
20220525004554 53 207 0.0 0.0 0.00 0.00 0.00 1 1012.9
20220525003058 53 207 0.0 0.0 0.00 0.00 0.00 11 1013.1
20220525001554 53 207 0.0 0.0 0.00 0.00 0.00 21 1013.1
20220525000037 53 207 0.0 0.0 0.00 0.00 0.00 23 1013.3
20220524234532 53 207 0.0 0.0 0.00 0.00 0.00 19 1013.5
20220524233038 53 207 0.0 0.0 0.00 0.00 0.00 21 1013.3
20220524231521 53 206 0.0 0.0 0.00 0.00 0.00 25 1013.4
20220524230026 54 206 0.0 0.0 0.00 0.00 0.00 41 1013.7
20220524224516 54 206 0.0 0.0 0.00 0.00 0.00 38 1014.1
20220524223024 55 165 0.0 0.0 0.00 0.00 0.00 47 1014.2
20220524221503 55 169 0.0 0.0 0.00 0.00 0.00 56 1014.3
20220524220101 55 169 0.0 0.0 0.00 0.00 0.00 60 1014.3
20220524214555 55 165 0.0 0.0 0.00 0.00 0.00 52 1014.2
20220524213051 55 227 0.0 0.0 0.00 0.00 0.00 58 1014.2
20220524211546 54 319 0.0 0.0 0.00 0.00 0.00 59 1014.2
20220524210041 55 8 0.0 0.0 0.00 0.00 0.00 60 1014.4
20220524204537 57 70 0.0 0.0 0.00 0.00 0.00 60 1014.3
20220524203052 57 70 0.0 0.0 0.00 0.00 0.00 61 1014.1
20220524201533 56 70 0.0 0.0 0.00 0.00 0.00 47 1014.2
20220524200023 56 3 0.0 0.0 0.00 0.00 0.00 51 1014.3
20220524194522 56 123 0.0 0.0 0.00 0.00 0.00 56 1014.6
20220524193025 56 123 0.0 0.0 0.00 0.00 0.00 52 1014.9
20220524191512 56 123 0.0 0.0 0.00 0.00 0.00 53 1015.2
20220524190006 55 131 0.0 0.0 0.00 0.00 0.00 44 1015.1
20220524184510 54 84 0.0 0.0 0.00 0.00 0.00 45 1015.5
20220524183101 54 84 0.0 0.0 0.00 0.00 0.00 32 1015.6
20220524181552 53 84 0.0 0.0 0.00 0.00 0.00 42 1015.9
20220524180048 53 84 0.0 0.0 0.00 0.00 0.00 38 1016.1
20220524174544 54 84 0.0 0.0 0.00 0.00 0.00 37 1015.9
20220524173039 53 85 0.0 0.0 0.00 0.00 0.00 19 1015.7
20220524171539 53 191 0.0 0.0 0.00 0.00 0.00 12 1015.6
20220524170033 51 243 0.0 0.0 0.00 0.00 0.00 1 1015.9
20220524164527 50 243 0.0 0.0 0.00 0.00 0.00 1 1016.1
20220524163026 50 244 0.0 0.0 0.00 0.00 0.00 1 1016.3
20220524161520 50 243 0.0 0.0 0.00 0.00 0.00 1 1016.3
20220524160014 50 226 0.0 0.0 0.00 0.00 0.00 1 1016.1
20220524154509 50 73 0.0 0.0 0.00 0.00 0.00 1 1015.9
20220524153008 50 73 0.0 0.0 0.00 0.00 0.00 1 1016.0